{"data":{"norad_id":65442,"intl_designator":"2025-194J","name":"STARLINK-34679","alt_names":[],"object_type":"PAYLOAD","status":"ACTIVE","operator":null,"country":"US","launch_date":"2025-09-03","launch_site_code":"AFWTR","launch_vehicle":null,"mission":null,"orbit_class":"UNKNOWN","rcs_meters":null,"size_class":null,"mass_kg":null,"dimensions":null,"purposes":["comms"],"wikipedia_slug":null,"has_3d_model":false,"image_url":null,"decayed_at":null,"tle_current":{"epoch":"2026-09-20T14:06:23.603616Z","epoch_age_seconds":107324,"freshness":"FRESH","line1":"1 65442U 25194J   26263.58777319  .00012711  00000+0  39537-3 0  9999","line2":"2 65442  97.2840 113.2666 0002049  94.3753 265.7724 15.33445571 59087","mean_motion":15.33445571,"eccentricity":0.0002049,"inclination_deg":97.284,"raan_deg":113.2666,"arg_perigee_deg":94.3753,"mean_anomaly_deg":265.7724,"bstar":0.00039537,"rev_number":5908,"period_min":93.90616968954,"perigee_km":464.13920586474,"apogee_km":466.94374530404,"semimajor_km":6843.6784755844,"source":"CELESTRAK","updated_at":"2026-09-21T09:00:35.609986Z"}}}